Weather observations for the past three days for
Portland, Portland International Jetport
Imperial (Metric)
Date Time (edt) Wind (mph) Vis. (mi.) Weather Sky Cond. Temperature (ºF) Relative Humidity Wind Chill (°F) Heat Index (°F) Pressure Precipitation (in)
Air Dwpt 6 hour altimeter (in) sea level (mb) 1 hr 3 hr 6 hr
Max. Min.
13 15:51 S 14 G 20 10.00 Partly Cloudy FEW045 SCT250 75 54 48% 78 29.92 1013.3
13 14:51 S 10 10.00 Partly Cloudy FEW045 SCT250 75 55.9 52% 78 29.94 1013.7
13 13:51 S 10 10.00 Partly Cloudy FEW045 SCT250 73.9 57.9 75 64 57% 29.95 1014.0
13 12:51 S 12 10.00 Partly Cloudy SCT040 SCT250 75 62.1 64% 77 29.95 1014.2
13 11:51 SE 8 10.00 Partly Cloudy SCT044 75 63 66% 77 29.97 1014.7
13 10:51 Vrbl 6 10.00 Partly Cloudy FEW030 SCT036 SCT045 73 57.9 59% 29.97 1014.9
13 09:51 W 5 10.00 A Few Clouds FEW020 FEW250 71.1 62.1 73% 29.98 1015.2
13 08:51 W 3 10.00 A Few Clouds FEW010 FEW250 68 63 84% 29.98 1015.2
13 07:51 W 5 10.00 A Few Clouds FEW003 FEW250 64 61 64.9 57 90% 29.98 1015.3
13 06:51 W 5 0.50 Fog VV002 60.1 60.1 100% 29.97 1015.0
13 05:51 W 3 9.00 Partly Cloudy SCT005 57.9 57.9 100% 29.97 1014.8
13 04:51 SW 3 10.00 A Few Clouds FEW120 FEW250 57.9 57 97% 29.95 1014.0
13 03:51 Calm 10.00 Fair CLR 59 59 100% 29.93 1013.5
13 02:51 Calm 10.00 Overcast OVC085 62.1 59 90% 29.94 1013.8
13 01:51 Calm 10.00 Overcast BKN075 OVC095 62.1 59 64 61 90% 29.95 1014.1
13 00:51 Calm 10.00 Overcast SCT055 OVC070 62.1 59 90% 29.96 1014.5
12 23:51 S 3 10.00 Mostly Cloudy SCT070 BKN100 61 57.9 90% 29.97 1014.7
12 22:51 Calm 10.00 Mostly Cloudy BKN070 62.1 57.9 86% 29.96 1014.6
12 21:51 Calm 10.00 Overcast OVC110 61 57.9 90% 29.97 1014.7
12 20:51 S 3 10.00 Overcast OVC100 63 57.9 84% 29.95 1014.3
12 19:51 SW 6 10.00 Mostly Cloudy BKN100 64 59 71.1 64 84% 29.95 1014.1
12 18:51 S 7 10.00 Partly Cloudy SCT100 66.9 60.1 79% 29.94 1013.7
12 17:51 E 3 10.00 Mostly Cloudy FEW017 BKN100 69.1 62.1 78% 29.94 1013.9
12 16:51 Calm 10.00 Mostly Cloudy FEW013 BKN100 66.9 62.1 84% 29.96 1014.5
12 15:51 NW 7 10.00 Light Rain FEW025 BKN080 OVC100 64.9 60.1 84% 29.98 1015.0
12 14:51 E 9 10.00 Partly Cloudy SCT080 69.1 59 70% 29.97 1014.8
12 13:51 E 10 10.00 Partly Cloudy SCT045 SCT110 70 61 71.1 63 73% 29.98 1015.1
12 12:51 E 7 10.00 Partly Cloudy FEW045 SCT095 70 60.1 71% 29.98 1015.2
12 11:51 E 12 10.00 Partly Cloudy SCT035 SCT095 68 59 73% 29.99 1015.6
12 10:51 E 8 10.00 Mostly Cloudy SCT035 BKN085 68 60.1 76% 30 1015.9
12 09:51 E 9 10.00 Mostly Cloudy FEW015 SCT048 BKN075 63 57.9 84% 30 1016.0
12 08:51 E 8 10.00 Mostly Cloudy FEW012 SCT046 BKN075 63 57.9 84% 30 1015.9
12 07:51 N 7 10.00 Partly Cloudy FEW004 SCT080 64.9 59 64.9 54 81% 29.98 1015.3
12 06:51 N 3 10.00 A Few Clouds FEW005 FEW075 60.1 57 90% 29.98 1015.2
12 05:51 Calm 10.00 A Few Clouds FEW070 55.9 55 97% 29.97 1015.0
12 04:51 N 5 10.00 Partly Cloudy SCT075 55 54 96% 29.98 1015.1
12 03:51 N 3 10.00 Partly Cloudy SCT075 55.9 54 93% 29.97 1014.9
12 02:51 Calm 10.00 Overcast OVC075 57.9 55.9 93% 29.97 1014.8
12 01:51 N 3 10.00 Overcast BKN060 OVC070 57.9 55 64 55.9 90% 29.97 1014.8
12 00:51 Calm 10.00 Partly Cloudy SCT065 57 55 93% 29.96 1014.6
11 23:51 Calm 10.00 A Few Clouds FEW043 FEW060 57.9 55 90% 29.97 1014.8
11 22:51 Calm 10.00 Fair CLR 57.9 54 87% 29.95 1014.3
11 21:51 SW 3 10.00 Fair CLR 59 55 87% 29.95 1014.2
11 20:51 S 3 10.00 A Few Clouds FEW080 61 53.1 75% 29.94 1013.8
11 19:51 S 9 10.00 A Few Clouds FEW080 64 53.1 70 64 68% 29.93 1013.5
11 18:51 S 5 10.00 Partly Cloudy SCT080 66.9 54 63% 29.92 1013.0
11 17:51 S 6 10.00 Fair CLR 69.1 55.9 63% 29.91 1012.7
11 16:51 S 7 10.00 A Few Clouds FEW080 68 54 61% 29.9 1012.6
11 15:51 S 8 10.00 Mostly Cloudy BKN075 66.9 55 66% 29.91 1012.9
11 14:51 S 10 10.00 Overcast OVC070 66 55 68% 29.92 1013.0
11 13:51 S 8 10.00 Mostly Cloudy SCT040 BKN065 69.1 55.9 71.1 60.1 63% 29.9 1012.4
11 12:51 S 7 10.00 Mostly Cloudy SCT037 SCT048 BKN065 68 55.9 65% 29.89 1012.1
11 11:51 NE 3 10.00 Mostly Cloudy SCT033 BKN048 BKN065 68 55 63% 29.89 1012.2
11 10:51 Vrbl 5 10.00 Mostly Cloudy FEW030 SCT044 BKN060 66.9 55 66% 29.89 1012.1
11 09:51 NE 5 10.00 Mostly Cloudy FEW040 BKN060 66.9 55.9 68% 29.88 1011.9
11 08:51 N 6 10.00 Mostly Cloudy FEW055 BKN060 64.9 55.9 73% 29.87 1011.4
11 07:51 NW 6 10.00 Mostly Cloudy BKN050 60.1 54 60.1 48.9 80% 29.86 1011.0
11 06:51 W 5 10.00 A Few Clouds FEW060 57 53.1 87% 29.84 1010.4
11 05:51 W 3 10.00 A Few Clouds FEW065 52 51.1 97% 29.82 1009.7
11 04:51 W 5 10.00 A Few Clouds FEW060 51.1 48.9 92% 29.79 1008.8
11 03:51 Calm 10.00 Fair CLR 52 50 93% 29.78 1008.4
11 02:51 W 7 10.00 Fair CLR 51.1 50 96% 29.77 1008.1
11 01:51 W 5 10.00 Fair CLR 55 51.1 66 53.1 87% 29.77 1008.0
11 00:51 Calm 10.00 Fair CLR 55.9 51.1 84% 29.75 1007.5
10 23:51 Calm 10.00 Fair CLR 57.9 52 81% 29.73 1006.7
10 22:51 N 6 10.00 Fair CLR 59 52 78% 29.71 1005.9
10 21:51 N 7 10.00 Fair CLR 61 53.1 75% 29.68 1005.1
10 20:51 W 8 10.00 Mostly Cloudy BKN090 64 54 70% 29.65 1004.0
10 19:51 NW 9 10.00 Overcast OVC090 66 54 73.9 66 65% 29.63 1003.3
10 18:51 NW 12 10.00 Overcast OVC090 68 53.1 59% 29.61 1002.6
10 17:51 W 10 10.00 Mostly Cloudy SCT065 BKN080 71.1 52 51% 29.58 1001.6
10 16:51 SW 12 G 22 10.00 Mostly Cloudy BKN070 73 53.1 50% 29.56 1001.1
Date Time (edt) Wind (mph) Vis. (mi.) Weather Sky Cond. Air Dwpt Max. Min. Relative Humidity Wind Chill (°F) Heat Index (°F) altimeter (in) sea level (mb) 1 hr 3 hr 6 hr
6 hour
Temperature (ºF) Pressure Precipitation (in)